Hurley, NM

6:34 PM MST on December 03, 2016 (GMT -0700)
Grant County

Weather History for KSVC - March, 2014

Change the Weather History Date:

Friday, March 7, 2014

  Actual Average (KDMN) Record (KDMN)
Temperature  
Mean Temperature 50 °F 50 °F  
Max Temperature 64 °F 66 °F 82 °F (1960)
Min Temperature 37 °F 34 °F 20 °F (1959)
Degree Days  
Heating Degree Days 14    
Moisture  
Dew Point 24 °F    
Average Humidity 37    
Maximum Humidity 61    
Minimum Humidity 18    
Precipitation  
Precipitation 0.00 in 0.02 in 0.20 in (1969)
Month to date precipitation 0.15  
Year to date precipitation 1.35  
Sea Level Pressure  
Sea Level Pressure 29.98 in    
Wind  
Wind Speed 10 mph (NW)    
Max Wind Speed 31 mph    
Max Gust Speed 39 mph    
Visibility 10 miles    
Events      
T = Trace of Precipitation, MM = Missing Value Source: NWS Daily Summary

Daily Weather History Graph

Daily Weather History Graph

Search for Another Location

Airport or City:

Trip Planner

Search our weather history database for the weather conditions in past years. The results will help you decide how hot, cold, wet, or windy it might be!

Date:

Astronomy

Mar. 07, 2014 Rise Set
Actual Time 6:32 AM MST 6:14 PM MST
Civil Twilight 6:08 AM MST 6:39 PM MST
Nautical Twilight 5:39 AM MST 7:07 PM MST
Astronomical Twilight 5:11 AM MST 7:36 PM MST
Moon 10:48 AM MST (3/7) 12:03 AM MST (3/7)
Length of Visible Light 12h 30m
Length of Day
11h 41m
Waxing Crescent, 42% of the Moon is Illuminated
Mar 7
Waxing Crescent
Mar 8
First Quarter
Mar 16
Full
Mar 23
Last Quarter
Mar 30
New

Hourly Weather History & Observations

Time (MST) Temp. Windchill Dew Point Humidity Pressure Visibility Wind Dir Wind Speed Gust Speed Precip Events Conditions
12:15 AM 46.4 °F 43.5 °F 21.2 °F 37% 30.03 in 10.0 mi NW 5.8 mph - N/A   Clear
12:35 AM 44.6 °F 41.4 °F 21.2 °F 39% 30.03 in 10.0 mi WNW 5.8 mph - N/A   Clear
12:55 AM 44.6 °F 41.4 °F 21.2 °F 39% 30.03 in 10.0 mi NW 5.8 mph - N/A   Clear
1:15 AM 46.4 °F 44.3 °F 21.2 °F 37% 30.03 in 10.0 mi NNW 4.6 mph - N/A   Clear
1:35 AM 44.6 °F 41.4 °F 23.0 °F 43% 30.02 in 10.0 mi NNW 5.8 mph - N/A   Clear
1:55 AM 41.0 °F 37.1 °F 23.0 °F 49% 30.02 in 10.0 mi NNW 5.8 mph - N/A   Clear
2:15 AM 44.6 °F 41.4 °F 23.0 °F 43% 30.02 in 10.0 mi NW 5.8 mph - N/A   Clear
2:35 AM 42.8 °F 40.1 °F 23.0 °F 46% 30.01 in 10.0 mi North 4.6 mph - N/A   Clear
2:55 AM 44.6 °F 42.2 °F 23.0 °F 43% 30.00 in 10.0 mi North 4.6 mph - N/A   Clear
3:15 AM 44.6 °F 42.2 °F 23.0 °F 43% 29.99 in 10.0 mi NNW 4.6 mph - N/A   Clear
3:35 AM 46.4 °F 44.3 °F 23.0 °F 40% 29.99 in 10.0 mi NW 4.6 mph - N/A   Clear
3:55 AM 44.6 °F 41.4 °F 23.0 °F 43% 29.99 in 10.0 mi WNW 5.8 mph - N/A   Clear
4:15 AM 44.6 °F 43.1 °F 23.0 °F 43% 29.98 in 10.0 mi WNW 3.5 mph - N/A   Clear
4:35 AM 42.8 °F 39.3 °F 23.0 °F 46% 29.98 in 10.0 mi WNW 5.8 mph - N/A   Clear
4:55 AM 41.0 °F 39.0 °F 23.0 °F 49% 29.98 in 10.0 mi West 3.5 mph - N/A   Clear
5:15 AM 42.8 °F 38.0 °F 23.0 °F 46% 29.98 in 10.0 mi WNW 8.1 mph - N/A   Clear
5:35 AM 37.4 °F 30.3 °F 23.0 °F 56% 29.99 in 10.0 mi NW 10.4 mph - N/A   Clear
5:55 AM 37.4 °F 30.3 °F 23.0 °F 56% 29.99 in 10.0 mi NW 10.4 mph - N/A   Clear
6:15 AM 37.4 °F 29.8 °F 23.0 °F 56% 29.99 in 10.0 mi NW 11.5 mph - N/A   Clear
6:35 AM 37.4 °F 29.3 °F 23.0 °F 56% 29.99 in 10.0 mi NNW 12.7 mph - N/A   Clear
6:55 AM 37.4 °F 30.3 °F 24.8 °F 60% 30.00 in 10.0 mi NNW 10.4 mph - N/A   Clear
7:15 AM 41.0 °F 34.7 °F 24.8 °F 53% 30.00 in 10.0 mi NNW 10.4 mph - N/A   Clear
7:35 AM 46.4 °F 42.9 °F 24.8 °F 43% 30.01 in 10.0 mi NW 6.9 mph - N/A   Clear
7:55 AM 48.2 °F - 24.8 °F 40% 30.01 in 10.0 mi NW 8.1 mph - N/A   Clear
8:15 AM 53.6 °F - 24.8 °F 33% 30.01 in 10.0 mi NW 9.2 mph - N/A   Clear
8:35 AM 53.6 °F - 24.8 °F 33% 30.01 in 10.0 mi NW 8.1 mph - N/A   Clear
8:55 AM 55.4 °F - 24.8 °F 31% 30.01 in 10.0 mi NW 11.5 mph - N/A   Clear
9:15 AM 57.2 °F - 24.8 °F 29% 30.00 in 10.0 mi WNW 10.4 mph - N/A   Clear
9:35 AM 59.0 °F - 26.6 °F 29% 30.00 in 10.0 mi NW 11.5 mph - N/A   Clear
9:55 AM 59.0 °F - 26.6 °F 29% 30.00 in 10.0 mi NW 17.3 mph - N/A   Clear
10:15 AM 60.8 °F - 26.6 °F 27% 30.01 in 10.0 mi NW 13.8 mph 23.0 mph N/A   Clear
10:35 AM 60.8 °F - 26.6 °F 27% 30.00 in 10.0 mi WNW 19.6 mph 25.3 mph N/A   Clear
10:55 AM 62.6 °F - 26.6 °F 26% 30.00 in 10.0 mi NW 21.9 mph 26.5 mph N/A   Clear
11:15 AM 62.6 °F - 26.6 °F 26% 30.00 in 10.0 mi WNW 10.4 mph 20.7 mph N/A   Clear
11:35 AM 62.6 °F - 24.8 °F 24% 29.99 in 10.0 mi West 10.4 mph 24.2 mph N/A   Clear
11:55 AM 64.4 °F - 23.0 °F 21% 29.98 in 10.0 mi West 12.7 mph 29.9 mph N/A   Clear
12:15 PM 64.4 °F - 21.2 °F 19% 29.97 in 10.0 mi WNW 19.6 mph 28.8 mph N/A   Clear
12:35 PM 64.4 °F - 19.4 °F 18% 29.95 in 10.0 mi West 20.7 mph 28.8 mph N/A   Clear
12:55 PM 64.4 °F - 19.4 °F 18% 29.95 in 10.0 mi WNW 24.2 mph 31.1 mph N/A   Clear
1:15 PM 64.4 °F - 19.4 °F 18% 29.94 in 10.0 mi WNW 18.4 mph 26.5 mph N/A   Clear
1:35 PM 64.4 °F - 21.2 °F 19% 29.93 in 10.0 mi NW 17.3 mph 28.8 mph N/A   Clear
1:55 PM 64.4 °F - 23.0 °F 21% 29.93 in 10.0 mi West 15.0 mph 26.5 mph N/A   Clear
4:15 PM 64.4 °F - 19.4 °F 18% 29.89 in 10.0 mi West 31.1 mph 39.1 mph N/A   Clear
4:35 PM 64.4 °F - 19.4 °F 18% 29.89 in 10.0 mi WNW 27.6 mph 35.7 mph N/A   Clear
4:55 PM 64.4 °F - 23.0 °F 21% 29.90 in 10.0 mi West 24.2 mph 32.2 mph N/A   Clear
5:15 PM 62.6 °F - 21.2 °F 20% 29.90 in 10.0 mi West 24.2 mph 34.5 mph N/A   Clear
5:35 PM 62.6 °F - 23.0 °F 22% 29.91 in 10.0 mi WNW 21.9 mph 27.6 mph N/A   Clear
5:55 PM 60.8 °F - 23.0 °F 23% 29.91 in 10.0 mi WNW 20.7 mph 27.6 mph N/A   Clear
6:15 PM 59.0 °F - 23.0 °F 25% 29.92 in 10.0 mi WNW 13.8 mph - N/A   Clear
6:35 PM 57.2 °F - 23.0 °F 27% 29.92 in 10.0 mi WNW 12.7 mph - N/A   Clear
6:55 PM 55.4 °F - 24.8 °F 31% 29.93 in 10.0 mi WNW 9.2 mph - N/A   Clear
7:15 PM 51.8 °F - 24.8 °F 35% 29.94 in 10.0 mi NW 8.1 mph - N/A   Clear
7:35 PM 50.0 °F - 24.8 °F 37% 29.94 in 10.0 mi NW 8.1 mph - N/A   Clear
7:55 PM 48.2 °F - 24.8 °F 40% 29.96 in 10.0 mi NW 9.2 mph - N/A   Clear
8:15 PM 46.4 °F 41.9 °F 24.8 °F 43% 29.96 in 10.0 mi NNW 9.2 mph - N/A   Clear
8:35 PM 46.4 °F 40.7 °F 24.8 °F 43% 29.97 in 10.0 mi NNW 12.7 mph - N/A   Clear
8:55 PM 48.2 °F - 24.8 °F 40% 29.98 in 10.0 mi North 10.4 mph - N/A   Clear
9:15 PM 46.4 °F 41.9 °F 28.4 °F 50% 29.98 in 10.0 mi North 9.2 mph - N/A   Clear
9:35 PM 46.4 °F 41.5 °F 28.4 °F 50% 29.99 in 10.0 mi NW 10.4 mph - N/A   Clear
9:55 PM 46.4 °F 41.1 °F 28.4 °F 50% 29.99 in 10.0 mi NW 11.5 mph - N/A   Clear
10:15 PM 44.6 °F 38.1 °F 28.4 °F 53% 30.00 in 10.0 mi NW 13.8 mph - N/A   Clear
10:35 PM 44.6 °F 38.4 °F 30.2 °F 57% 30.00 in 10.0 mi NW 12.7 mph - N/A   Clear
10:55 PM 46.4 °F 39.8 °F 32.0 °F 57% 30.00 in 10.0 mi NW 16.1 mph - N/A   Clear
11:35 PM 44.6 °F 39.7 °F 32.0 °F 61% 30.01 in 10.0 mi NNW 9.2 mph - N/A   Clear
11:55 PM 44.6 °F 38.4 °F 32.0 °F 61% 30.01 in 10.0 mi NW 12.7 mph - N/A   Clear